Location: Gad�tanya
(48.0500°N, 20.8500°E)
Time: 10:53:01
(UTC+00:00)

Cosmos 1862 - Pass Details

Date: 05 July 2020
Orbit: 539 x 555 km, 82.5° (Epoch: 15 August)

Event Time Altitude Azimuth Distance (km) Brightness Sun altitude
Exits shadow 22:57:38 33° 126° (SE) 932 4.2 -19.2°
Maximum altitude 22:58:36 38° 93° (E) 834 4.2 -19.2°
Drops below altitude 10° 23:02:20 10° 24° (NNE) 1,820 7.0 -19.1°
Sets 23:04:35 0° 17° (NNE) 2,721 8.4 -19.1°
